Location: Recife
(8.0585°S, 34.8848°W)
Time: 10:40:50
(UTC-03:00)

Explorer 7 - Pass Details

Date: 15 April 2026
Orbit: 427 x 536 km, 50.2° (Epoch: 14 May)

Event Time Altitude Azimuth Distance (km) Brightness Sun altitude
Rises 01:56:24 0° 310° (NW) 2,442 - -51.3°
Reaches altitude 10° 01:58:38 10° 302° (WNW) 1,557 - -50.7°
Maximum altitude 02:01:55 38° 232° (SW) 675 - -49.9°
Drops below altitude 10° 02:05:10 10° 162° (SSE) 1,531 - -49.1°
Sets 02:07:21 0° 153° (SSE) 2,394 - -48.6°
